Location: Home
(42.5358°N, 72.7383°W)
Time: 12:22:41
(UTC-05:00)

Explorer 7 - Pass Details

Date: 04 December 2021
Orbit: 483 x 674 km, 50.3° (Epoch: 20 January)

Event Time Altitude Azimuth Distance (km) Brightness Sun altitude
Rises 08:21:29 0° 290° (WNW) 2,729 9.8 10.5°
Reaches altitude 10° 08:24:03 10° 303° (WNW) 1,799 8.9 10.8°
Maximum altitude 08:27:31 26° 1° (N) 1,051 8.0 11.3°
Drops below altitude 10° 08:30:50 10° 60° (ENE) 1,718 9.6 11.7°
Sets 08:33:14 0° 73° (ENE) 2,579 10.6 12.0°
